This demonstration page uses our WeatherBlox Daily Observations layout. Learn more.

Left ArrowRight Arrow

Hourly Observations for October 19, 2020

Temp ( °F °C ) Dew Point ( °F °C ) Humidity (%) Winds ( mph kmh ) Pressure ( in mb ) Visibility ( mi km ) Precip ( " mm )
12:15 am 00:15 Mostly Cloudy 32 undefined 28 -2.2 85 85 ENE 7 11 30.33 1027 10 16 N/A
12:55 am 00:55 Cloudy 32 0.2 28 -2 85 85 NNE 6 9 30.37 1029 10 16 N/A
1:55 am 01:55 Cloudy 33 0.5 28 -2 84 84 E 12 19 30.29 1026 10 16 N/A
2:15 am 02:15 Cloudy 33 0.5 28 -2.4 81 81 ESE 13 20 30.27 1025 10 16 N/A
2:35 am 02:35 Cloudy 33 0.6 28 -2.5 80 80 SE 15 24 30.24 1024 10 16 N/A
2:55 am 02:55 Cloudy 33 0.6 28 -2.3 81 81 SE 15 24 30.22 1023 10 16 N/A
3:15 am 03:15 Cloudy 34 1 27 -2.8 76 76 ESE 8 13 30.24 1024 10 16 N/A
5:15 am 05:15 Cloudy 35 1.5 26 -3.1 72 72 ESE 10 17 30.21 1023 10 16 N/A
5:35 am 05:35 Cloudy 35 1.5 26 -3.2 71 71 SE 10 17 30.21 1023 10 16 N/A
5:55 am 05:55 Cloudy 35 1.5 26 -3.3 71 71 SE 8 13 30.20 1023 10 16 N/A
6:15 am 06:15 Cloudy 35 1.6 26 -3.2 71 71 SE 7 11 30.20 1023 10 16 N/A
6:35 am 06:35 Cloudy 35 1.8 26 -3.4 69 69 ESE 7 11 30.20 1023 10 16 N/A
6:55 am 06:55 Cloudy 35 1.8 25 -3.7 67 67 ESE 7 11 30.21 1023 10 16 N/A
7:15 am 07:15 Cloudy 35 1.8 25 -3.9 66 66 ESE 6 9 30.22 1023 10 16 N/A
7:35 am 07:35 Cloudy 35 1.8 25 -3.7 67 67 E 6 9 30.23 1024 10 16 N/A
7:55 am 07:55 Cloudy 35 1.8 26 -3.6 68 68 E 6 9 30.24 1024 10 16 N/A
8:15 am 08:15 Cloudy 35 1.8 26 -3.5 68 68 ENE 6 9 30.24 1024 10 16 N/A
8:35 am 08:35 Cloudy 35 1.8 26 -3.5 68 68 E 8 13 30.24 1024 10 16 N/A
8:55 am 08:55 Cloudy 35 1.8 26 -3.5 68 68 E 8 13 30.25 1024 10 16 N/A
9:15 am 09:15 Cloudy 36 2.1 26 -3.3 68 68 ESE 9 15 30.24 1024 10 16 N/A
9:35 am 09:35 Cloudy 36 2.3 26 -3.1 68 68 ESE 9 15 30.24 1024 10 16 N/A
9:55 am 09:55 Cloudy 37 2.6 27 -3 67 67 ESE 7 11 30.24 1024 10 16 N/A
10:15 am 10:15 Cloudy 37 2.7 27 -3 66 66 SE 9 15 30.23 1024 10 16 N/A
10:35 am 10:35 Cloudy 38 3.3 27 -2.9 64 64 SE 9 15 30.22 1024 10 16 N/A
10:55 am 10:55 Cloudy 39 3.9 27 -3 61 61 SE 13 20 30.20 1023 10 16 N/A
11:15 am 11:15 Cloudy 41 4.8 26 -3.1 57 57 SSE 12 19 30.19 1022 10 16 N/A
11:35 am 11:35 Cloudy 42 5.3 26 -3.4 54 54 SSE 10 17 30.18 1022 10 16 N/A
11:55 am 11:55 Partly Cloudy 43 6.2 25 -3.8 49 49 S 12 19 30.17 1022 10 16 N/A
12:15 pm 12:15 Partly Cloudy 44 6.4 25 -4 48 48 S 10 17 30.16 1021 10 16 N/A
12:35 pm 12:35 Sunny 45 7.3 24 -4.3 44 44 S 14 22 30.14 1021 10 16 N/A
12:55 pm 12:55 Sunny 46 8 24 -4.3 42 42 S 13 20 30.11 1020 10 16 N/A
1:15 pm 13:15 Sunny 48 8.8 24 -4.2 40 40 SSW 12 19 30.10 1019 10 16 N/A
1:35 pm 13:35 Sunny 47 8.2 25 -3.8 43 43 S 10 17 30.10 1019 10 16 N/A
1:55 pm 13:55 Sunny 49 9.6 27 -2.9 42 42 SW 12 19 30.09 1019 10 16 N/A
2:15 pm 14:15 Sunny 49 9.5 27 -2.6 43 43 SSW 10 17 30.08 1019 10 16 N/A
2:35 pm 14:35 Sunny 48 8.7 27 -2.8 45 45 WSW 6 9 30.08 1019 10 16 N/A
2:55 pm 14:55 Sunny 49 9.2 27 -2.6 44 44 SSW 7 11 30.09 1019 10 16 N/A
3:15 pm 15:15 Sunny 49 9.7 27 -2.7 42 42 S 6 9 30.07 1018 10 16 N/A
3:35 pm 15:35 Partly Cloudy 49 9.6 28 -2.5 43 43 N N/A 30.07 1018 10 16 N/A
3:55 pm 15:55 Partly Cloudy 50 10.2 28 -2.3 42 42 SSW 5 7 30.05 1018 10 16 N/A
4:15 pm 16:15 Sunny 50 10 29 -1.9 44 44 N N/A 30.04 1017 10 16 N/A
4:35 pm 16:35 Mostly Cloudy 50 9.9 29 -1.7 45 45 S 6 9 30.05 1018 10 16 N/A
4:55 pm 16:55 Mostly Cloudy 50 10.1 29 -1.8 44 44 S 5 7 30.05 1018 10 16 N/A
5:15 pm 17:15 Cloudy 50 9.8 29 -1.8 45 45 SSE 3 6 30.05 1018 10 16 N/A
5:35 pm 17:35 Partly Cloudy 50 9.9 29 -1.5 45 45 SSE 7 11 30.04 1017 10 16 N/A
5:55 pm 17:55 Sunny 49 9.5 30 -1.3 47 47 SSE 6 9 30.06 1018 10 16 N/A
6:15 pm 18:15 Mostly Cloudy 48 9.1 30 -1.1 49 49 SSE 5 7 30.08 1019 10 16 N/A
6:35 pm 18:35 Cloudy 48 8.7 30 -1 51 51 SSE 3 6 30.08 1019 10 16 N/A
6:55 pm 18:55 Cloudy 47 8.5 31 -0.7 53 53 SSE 3 6 30.09 1019 10 16 N/A
7:15 pm 19:15 Cloudy 47 8.6 32 -0.2 54 54 N N/A 30.09 1019 10 16 N/A
7:35 pm 19:35 Cloudy 47 8.5 31 -0.4 54 54 SE 6 9 30.09 1019 10 16 N/A
7:55 pm 19:55 Cloudy 47 8.3 31 -0.3 55 55 SE 5 7 30.09 1019 10 16 N/A
8:15 pm 20:15 Cloudy 47 8.1 32 -0.1 57 57 SE 8 13 30.09 1019 10 16 N/A
8:35 pm 20:35 Cloudy 46 8 32 undefined 57 57 SE 5 7 30.10 1019 10 16 N/A
8:55 pm 20:55 Cloudy 46 8 32 undefined 57 57 SE 6 9 30.09 1019 10 16 N/A
9:15 pm 21:15 Cloudy 46 7.8 32 -0.1 58 58 SE 7 11 30.09 1019 10 16 N/A
9:35 pm 21:35 Cloudy 46 7.8 32 undefined 58 58 SE 9 15 30.10 1019 10 16 N/A
9:55 pm 21:55 Cloudy 46 7.7 32 undefined 59 59 SE 9 15 30.09 1019 10 16 N/A
10:15 pm 22:15 Cloudy 45 7.3 32 0.1 61 61 SSE 9 15 30.11 1020 10 16 N/A
10:35 pm 22:35 Partly Cloudy 44 6.7 32 0.1 63 63 SSE 8 13 30.12 1020 10 16 N/A
10:55 pm 22:55 Clear 43 6.3 32 0.1 65 65 SSE 7 11 30.13 1020 10 16 N/A
11:15 pm 23:15 Partly Cloudy 44 6.6 33 0.5 65 65 SSE 8 13 30.11 1020 10 16 N/A
11:35 pm 23:35 Cloudy 45 7 33 0.5 64 64 SSE 10 17 30.11 1020 10 16 N/A
11:55 pm 23:55 Cloudy 45 7 33 0.5 64 64 SSE 9 15 30.11 1020 10 16 N/A

Powered by AerisWeather